TimeEDT,TemperatureF,Dew PointF,Humidity,Sea Level PressureIn,VisibilityMPH,Wind Direction,Wind SpeedMPH,Gust SpeedMPH,PrecipitationIn,Events,Conditions,WindDirDegrees,DateUTC
12:54 AM,45.0,33.1,63,30.10,10.0,WSW,11.5,-,N/A,,Clear,250,2012-10-12 04:54:00
1:54 AM,43.0,33.1,68,30.08,10.0,WSW,10.4,-,N/A,,Clear,240,2012-10-12 05:54:00
2:54 AM,43.0,33.1,68,30.06,10.0,WSW,11.5,-,N/A,,Clear,240,2012-10-12 06:54:00
3:54 AM,42.8,33.8,70,30.02,10.0,WSW,10.4,-,N/A,,Clear,240,2012-10-12 07:54:00
4:54 AM,42.1,33.1,70,30.02,10.0,WSW,9.2,-,N/A,,Clear,240,2012-10-12 08:54:00
5:54 AM,39.9,33.1,77,30.01,10.0,SW,9.2,-,N/A,,Clear,230,2012-10-12 09:54:00
6:54 AM,37.0,33.1,86,30.02,10.0,SW,8.1,-,N/A,,Clear,230,2012-10-12 10:54:00
7:54 AM,42.1,35.1,76,30.03,10.0,WSW,6.9,-,N/A,,Clear,250,2012-10-12 11:54:00
8:54 AM,46.0,35.1,66,30.06,10.0,West,9.2,-,N/A,,Mostly Cloudy,270,2012-10-12 12:54:00
9:54 AM,46.4,35.6,66,30.06,10.0,WNW,9.2,18.4,N/A,Rain,Light Rain,290,2012-10-12 13:54:00
10:51 AM,42.8,39.2,87,30.08,9.0,NNW,6.9,-,0.03,Rain,Rain,330,2012-10-12 14:51:00
10:54 AM,42.1,39.0,89,30.11,9.0,NW,9.2,-,0.03,Rain,Light Rain,320,2012-10-12 14:54:00
11:05 AM,42.8,37.4,81,30.09,10.0,NNW,6.9,-,0.01,Rain,Light Rain,330,2012-10-12 15:05:00
11:54 AM,43.0,37.0,80,30.10,10.0,WNW,10.4,-,0.01,,Overcast,300,2012-10-12 15:54:00
12:54 PM,44.6,37.4,76,30.08,10.0,WNW,10.4,-,N/A,,Overcast,290,2012-10-12 16:54:00
1:54 PM,46.9,36.0,66,30.10,10.0,NW,13.8,20.7,N/A,,Mostly Cloudy,310,2012-10-12 17:54:00
2:54 PM,48.9,32.0,52,30.11,10.0,NW,13.8,-,N/A,,Scattered Clouds,310,2012-10-12 18:54:00
3:54 PM,48.9,27.0,43,30.13,10.0,NW,13.8,-,0.00,,Scattered Clouds,320,2012-10-12 19:54:00
4:54 PM,48.0,24.1,39,30.16,10.0,NNW,15.0,20.7,N/A,,Clear,340,2012-10-12 20:54:00
6:54 PM,43.0,24.1,47,30.24,10.0,NW,10.4,21.9,N/A,,Clear,320,2012-10-12 22:54:00
7:54 PM,41.0,25.0,53,30.28,10.0,NNW,8.1,-,N/A,,Partly Cloudy,330,2012-10-12 23:54:00
8:54 PM,39.0,21.9,50,30.31,10.0,NNW,13.8,25.3,N/A,,Clear,330,2012-10-13 00:54:00
9:54 PM,37.4,21.2,52,30.31,10.0,NNW,12.7,18.4,N/A,,Clear,330,2012-10-13 01:54:00
10:54 PM,36.0,21.0,55,30.38,10.0,NW,8.1,-,N/A,,Clear,320,2012-10-13 02:54:00
11:54 PM,35.1,21.0,57,30.38,10.0,NW,6.9,-,N/A,,Clear,320,2012-10-13 03:54:00